This is the latest recevied weather packets stored in our database for station/object NC4M. If no packets are shown the sender has not sent any weather packets the latest 10 day(s).
| Time | Temp. | Humidity | Pressure | Rain* | Wind** | Luminosity | Snow |
|---|---|---|---|---|---|---|---|
| 1787513950 | 26.11° C | 49% | 1019.6 hPa | 0 mm | - | 225 W/m² | - |
| 1787513646 | 26.11° C | 50% | 1019.7 hPa | 0 mm | - | 262 W/m² | - |
| 1787513342 | 26.11° C | 51% | 1019.6 hPa | 0 mm | - | 306 W/m² | - |
| 1787513038 | 26.67° C | 46% | 1019.9 hPa | 0 mm | - | 272 W/m² | - |
| 1787512734 | 26.67° C | 50% | 1019.9 hPa | 0 mm | - | 326 W/m² | - |
| 1787512430 | 26.11° C | 46% | 1019.7 hPa | 0 mm | - | 307 W/m² | - |
| 1787512125 | 26.67° C | 44% | 1019.9 hPa | 0 mm | - | 324 W/m² | - |
| 1787511820 | 26.67° C | 53% | 1020.2 hPa | 0 mm | - | 276 W/m² | - |
| 1787511520 | 26.67° C | 48% | 1020 hPa | 0 mm | - | 282 W/m² | - |
| 1787511219 | 26.67° C | 47% | 1020.1 hPa | 0 mm | - | 244 W/m² | - |
| 1787510918 | 26.67° C | 47% | 1020.1 hPa | 0 mm | - | 322 W/m² | - |
| 1787510614 | 26.11° C | 48% | 1020.1 hPa | 0 mm | - | 250 W/m² | - |
| 1787510309 | 26.11° C | 47% | 1019.9 hPa | 0 mm | - | 281 W/m² | - |
| 1787510006 | 26.67° C | 49% | 1020.5 hPa | 0 mm | - | 440 W/m² | - |
| 1787509700 | 27.22° C | 47% | 1020.2 hPa | 0 mm | - | 350 W/m² | - |
| 1787509397 | 27.22° C | 46% | 1019.9 hPa | 0 mm | - | 704 W/m² | - |
| 1787509093 | 26.67° C | 49% | 1020.1 hPa | 0 mm | - | 792 W/m² | - |
| 1787508788 | 27.22° C | 45% | 1020.2 hPa | 0 mm | - | 749 W/m² | - |
| 1787508483 | 26.67° C | 51% | 1020.2 hPa | 0 mm | - | 774 W/m² | - |
| 1787508180 | 26.67° C | 52% | 1020.6 hPa | 0 mm | - | 638 W/m² | - |
| 1787507875 | 27.22° C | 49% | 1020.6 hPa | 0 mm | - | 641 W/m² | - |
| 1787507571 | 26.67° C | 47% | 1020.7 hPa | 0 mm | - | 836 W/m² | - |
| 1787507267 | 27.22° C | 50% | 1020.7 hPa | 0 mm | - | 874 W/m² | - |
| 1787506963 | 27.22° C | 47% | 1020.7 hPa | 0 mm | - | 664 W/m² | - |
| 1787506658 | 27.22° C | 50% | 1020.6 hPa | 0 mm | - | 935 W/m² | - |
* Rain latest hour (hover to see other rain measurements)
** Current wind speed in m/s (hover to see current wind gust speed)